Starlink 32856

operational
NORAD ID: 62819 Int'l Des: 2025-018 Owner: SPXS Country: US Constellation: starlink
LEOCIRCULAR

Über Starlink 32856

Beschreibung wird geladen...

Live-Position

3D-Globus wird geladen...

Nächste Überflüge

Höhenverlauf

Altitude vs Time

uPlot chart will show altitude changes over time

Zweizeiliger Elementsatz

1 62819U 25018P 26034.62822196 .00028795 00000-0 98092-3 0 9995
2 62819 53.1568 107.7957 0001219 75.2063 284.9073 15.30188392 57968
Epoch: 3. Feb. 2026 • Age: 12 hours

Aktueller Status

Höhe 486.9 km
Geschwindigkeit 7.62 km/s
Subsatellitenpunkt -35.31°S, 112.02°W
Startdatum 24. Jan. 2025
Alter 1 years
Typ internet

Technische Details

Klassifizierung Payload
Masse 730.00 kg
Trockenmasse 700.00 kg
Gesamtmasse 730.00 kg
Länge 0.30 m
Durchmesser 4.10 m
Spannweite 29.00 m
Form Box + pan
Hersteller SPXS
Bus-Typ Starlink V2M
Phasenstatus In Orbit
Besitzer/Staat SPXS/US

Große Konstellationen

Loading constellations...